Theta_e
338 336 337 337 338 338 339 337 337 338 338 338 338 338 340 340 339 339 338 338 337 336 336 335 334 334 335 334 334 334 334 335 335 334 335 334 334 335 335 335 335 335 335 334 334 332 331 331 330 330 332 331 330 330 328 328 328 327 326 328 328 327 327 326 324 324 323 323 323 323 323 323 324 327 328 329 329 330 331 331 331 331 332 332 332
338 336 336 336 337 338 340 339 338 339 339 340 339 340 340 340 339 339 339 338 338 338 338 337 336 336 336 335 336 335 334 334 333 333 334 334 335 335 335 336 336 336 336 336 335 334 332 331 330 331 332 332 331 330 329 328 328 327 326 327 328 327 326 325 324 324 323 323 323 323 323 323 323 326 328 328 329 329 330 331 331 331 332 332 332
338 337 336 337 339 339 340 340 340 340 340 341 341 340 340 340 340 340 339 339 339 339 339 338 337 337 336 336 336 336 335 334 333 332 333 334 334 334 335 336 336 336 336 336 335 335 334 332 331 330 332 332 331 331 331 329 328 327 326 327 327 327 326 324 324 322 322 323 323 322 323 323 323 326 327 328 328 329 330 330 330 331 331 331 331
339 339 339 339 339 339 340 340 340 340 341 341 341 341 341 341 341 341 340 340 340 339 338 338 338 337 337 336 336 336 336 335 334 332 332 333 333 334 335 335 335 335 336 335 335 335 335 334 332 330 331 333 332 331 332 330 329 328 327 327 327 327 326 323 321 321 321 324 323 321 322 322 322 326 327 327 328 328 329 329 330 330 331 331 331
340 340 340 340 339 339 340 340 340 341 341 341 342 342 342 341 340 340 340 340 340 340 339 338 338 338 337 337 336 336 336 335 335 334 333 333 333 333 334 335 335 335 336 335 334 334 335 335 333 331 331 334 334 332 332 331 330 330 328 327 327 327 326 324 322 321 322 324 323 321 321 321 322 326 326 326 328 328 329 329 329 330 330 331 331
340 341 340 340 339 339 339 340 340 341 341 341 342 342 341 340 340 341 341 341 341 340 339 338 338 338 338 337 337 336 336 336 336 336 335 334 334 334 334 335 335 335 336 336 335 334 335 335 334 333 331 333 334 332 332 332 331 331 329 327 328 327 326 325 324 322 323 324 323 322 322 321 322 325 326 326 327 327 328 328 329 329 330 331 331
340 340 340 340 340 339 339 339 339 340 341 341 342 341 340 340 341 341 341 340 340 339 339 338 338 338 338 338 337 336 337 336 336 337 336 335 335 335 335 335 335 335 335 336 336 335 335 335 335 334 332 331 332 332 332 332 332 331 330 328 328 328 326 326 324 323 323 323 323 323 324 323 322 324 325 325 326 327 328 328 328 329 330 330 330
339 340 341 341 339 339 339 339 339 339 341 341 341 340 340 340 340 340 339 338 338 338 339 338 338 338 338 338 337 337 337 337 337 337 337 336 336 337 336 336 335 335 335 335 336 335 335 335 335 334 333 332 330 331 332 333 333 332 331 329 328 328 327 326 325 323 322 322 323 324 324 324 323 322 324 325 325 326 327 328 328 329 329 330 329
337 339 342 341 339 339 339 339 339 340 340 341 340 339 339 339 340 339 339 338 338 338 338 338 338 338 338 338 338 338 337 338 338 337 338 337 337 338 337 337 337 336 336 336 335 335 334 334 335 334 334 333 331 330 330 332 333 332 331 330 329 328 327 327 326 324 321 322 323 324 324 325 324 323 323 324 325 325 327 328 328 328 329 329 329
336 338 341 342 340 340 339 339 339 339 339 340 340 339 339 339 339 338 338 338 338 338 338 337 337 338 338 338 337 337 336 337 336 336 337 337 337 338 338 338 338 338 337 337 336 335 334 333 334 334 333 333 333 331 329 330 332 332 332 331 330 329 328 327 326 324 321 321 324 324 325 324 324 324 323 323 324 324 325 327 328 328 328 328 328
339 338 339 340 340 340 339 340 339 339 339 339 339 339 339 338 338 338 337 338 338 338 338 337 337 337 337 336 336 335 335 335 335 335 335 336 337 337 338 338 338 338 338 337 337 336 334 333 333 334 334 333 333 332 330 329 329 331 332 332 331 329 328 327 326 326 322 321 324 324 325 325 324 323 323 323 323 324 325 326 327 327 328 329 327
338 337 338 337 337 338 339 339 339 339 339 339 339 338 338 338 338 338 337 337 337 337 337 336 336 336 336 336 335 335 334 334 334 334 335 336 336 336 336 337 337 338 337 337 337 336 335 334 334 334 334 334 333 333 332 331 329 330 331 331 331 330 329 328 326 327 324 322 323 325 325 325 325 323 323 323 323 323 324 325 326 327 328 328 327
338 338 338 336 335 337 337 339 339 339 339 339 339 339 338 338 338 338 337 338 338 338 337 337 336 336 336 335 335 334 334 334 334 335 335 335 335 336 336 336 336 336 337 337 337 337 336 336 335 335 335 335 334 334 333 333 331 330 329 330 331 330 329 329 327 327 326 323 322 324 325 325 325 323 322 324 323 322 324 324 324 326 326 328 327
338 339 338 336 337 337 338 339 340 339 339 339 339 339 338 338 339 339 339 339 339 338 338 337 336 336 336 336 337 335 333 334 335 335 335 335 335 336 336 336 336 336 336 337 337 337 336 336 336 335 335 335 335 334 334 333 333 332 330 329 330 330 329 329 329 327 327 326 323 322 324 325 326 323 321 323 321 320 324 325 323 324 326 326 326
339 339 338 337 337 337 338 339 340 339 339 339 339 338 338 338 338 338 339 339 339 338 337 337 337 336 336 337 339 338 338 336 334 335 335 335 336 336 336 336 336 336 336 337 337 337 337 337 336 336 335 335 335 334 334 334 334 333 332 330 329 329 329 329 329 328 327 327 325 323 324 325 326 324 321 320 320 319 322 324 323 323 325 325 325
339 339 339 338 338 338 339 339 339 338 338 337 337 337 337 337 337 337 338 337 337 337 336 337 337 336 337 338 338 338 340 338 334 335 334 335 335 335 336 336 335 336 336 336 336 337 337 337 337 336 335 335 335 334 334 334 334 334 333 332 330 329 329 329 329 329 328 327 327 325 325 326 326 325 323 320 321 320 320 323 323 323 324 324 324
338 338 338 337 337 337 337 337 337 337 336 335 335 336 336 336 336 336 336 336 336 336 336 336 336 336 336 337 337 339 340 337 335 336 335 334 334 334 334 335 335 336 336 336 336 336 336 337 336 336 336 335 335 334 334 334 334 334 333 333 332 330 329 328 328 329 329 327 327 327 326 326 326 326 324 321 322 322 320 320 322 323 323 324 323
336 336 335 334 334 335 335 336 335 334 334 333 333 334 335 335 335 335 335 335 335 335 335 335 334 334 334 334 335 337 337 336 337 338 336 334 334 334 334 333 334 335 336 336 336 336 335 335 335 335 336 335 335 335 335 334 334 334 334 333 333 332 330 329 328 328 329 328 327 327 326 326 326 326 325 322 322 323 322 321 321 321 322 323 323
335 334 333 333 333 333 333 333 333 332 331 331 332 333 333 334 333 333 334 334 334 333 333 333 333 332 331 331 332 333 334 336 338 338 337 336 334 334 334 333 333 333 333 334 335 336 335 335 335 335 335 335 335 335 335 335 335 334 334 334 333 333 332 331 329 328 328 329 328 327 326 327 327 326 325 323 321 323 323 323 322 321 320 322 323
334 333 333 333 333 332 331 331 331 331 330 330 331 332 332 332 332 332 332 332 332 332 332 332 332 331 331 331 332 333 333 334 335 335 337 337 335 333 333 332 332 332 332 332 333 334 334 335 335 335 335 336 335 335 335 335 335 334 334 334 334 333 333 332 331 329 328 328 328 327 326 327 328 327 325 324 322 321 323 323 324 323 320 320 322
334 334 332 332 331 329 329 329 329 329 329 329 329 330 330 330 330 330 330 330 330 331 331 331 331 332 332 333 333 333 333 333 333 333 334 336 336 334 332 331 331 331 331 331 331 332 332 334 335 336 336 336 336 336 335 335 335 335 334 334 334 334 333 332 332 331 328 326 327 327 327 328 329 328 327 326 323 321 322 323 324 324 321 319 321
331 331 330 329 328 327 327 327 327 327 327 327 328 328 329 328 328 328 329 329 329 330 330 330 330 330 331 331 332 332 332 332 332 332 332 333 334 333 331 331 331 331 331 331 330 330 331 331 333 335 336 336 336 336 336 335 335 335 335 334 334 334 333 333 333 332 329 326 325 326 327 328 329 329 329 328 325 322 322 324 324 325 323 319 319
328 327 327 326 326 326 325 325 325 325 325 326 326 326 327 327 327 327 328 328 328 328 328 328 328 328 328 328 328 329 330 330 331 331 331 331 332 331 330 330 330 330 330 330 330 330 330 330 331 332 334 335 336 335 335 335 335 335 334 334 334 334 334 333 332 332 331 327 325 324 325 328 330 330 330 329 326 324 323 324 324 325 324 321 319
325 326 325 325 324 324 324 324 324 324 324 324 324 325 325 326 326 326 326 326 326 326 325 325 325 325 325 324 325 326 326 328 328 329 329 329 330 330 329 329 329 329 329 329 329 330 329 330 330 331 332 333 334 335 335 335 334 334 334 334 334 334 334 334 333 333 332 329 327 324 322 325 329 330 330 329 327 325 323 324 324 325 325 322 320
324 324 323 323 323 322 322 322 322 321 321 322 322 323 323 324 324 324 324 324 323 323 323 322 322 322 322 322 322 322 323 324 324 325 326 327 328 329 329 329 329 329 329 329 329 329 329 329 330 330 331 331 331 334 335 333 333 333 333 333 334 334 334 334 333 332 332 331 330 326 323 322 325 328 331 330 328 325 323 324 324 324 325 323 320
322 322 321 321 321 320 320 319 319 319 319 320 320 321 321 322 322 322 322 321 320 320 320 320 320 320 320 320 320 320 321 321 321 322 324 326 327 328 329 329 328 328 328 329 328 329 329 329 329 330 330 330 331 333 333 331 332 332 332 333 333 333 334 333 333 332 332 332 331 329 326 324 322 324 329 330 329 327 323 323 325 324 325 323 321
321 320 320 319 319 319 319 319 319 318 318 319 319 319 320 320 320 320 320 319 319 319 318 318 318 319 319 319 319 319 320 320 320 321 322 323 325 325 326 327 327 327 327 328 328 328 328 329 329 329 330 330 330 330 330 330 330 330 332 333 333 332 333 333 333 332 332 332 332 330 328 327 322 321 325 328 329 328 323 323 324 324 325 324 322
319 319 318 318 318 318 319 318 318 318 318 318 319 319 319 319 319 319 318 318 318 318 318 318 318 318 318 318 318 319 319 318 319 319 320 321 322 322 323 324 326 327 327 327 327 327 328 328 329 329 329 329 329 329 329 330 329 330 331 332 332 332 332 332 332 333 332 332 332 331 329 328 324 320 322 325 328 329 325 323 323 324 325 325 324
318 318 318 318 318 318 318 318 318 318 318 318 318 319 319 318 318 318 317 317 318 317 317 317 318 317 318 318 318 318 317 316 316 317 317 318 319 319 320 321 323 324 325 325 325 326 327 326 327 327 327 327 327 328 329 329 329 329 330 330 331 331 331 332 332 331 332 332 332 331 330 329 325 321 320 322 325 329 327 324 323 324 324 324 324
317 317 317 317 317 317 317 317 317 317 317 317 317 317 317 317 317 317 317 316 317 316 316 316 316 316 317 317 316 315 314 314 313 313 314 314 314 315 316 317 318 320 322 323 323 324 324 324 324 325 325 325 326 327 328 328 328 329 329 329 330 330 331 331 332 331 331 331 332 331 331 330 327 324 321 320 322 326 328 325 323 323 324 324 324
317 317 317 317 317 316 316 316 317 317 316 316 316 316 316 316 316 316 316 316 316 316 315 315 315 315 315 315 314 313 311 311 311 311 311 311 311 311 312 314 316 317 319 320 321 321 322 322 322 323 323 324 325 326 326 327 327 328 328 328 329 330 330 330 331 331 330 330 331 332 332 331 330 327 324 320 319 322 326 326 324 323 324 324 323
316 316 316 316 316 316 316 316 316 316 316 316 315 315 315 315 315 315 316 316 315 314 314 314 314 315 315 314 313 311 308 308 308 308 308 308 309 310 311 312 313 315 316 318 319 318 318 319 320 320 321 322 324 325 325 326 327 327 327 328 328 329 329 328 329 329 329 330 331 331 331 331 330 328 326 323 319 319 322 325 326 324 323 323 323
316 315 315 315 315 315 315 315 315 314 314 314 314 314 314 315 315 314 314 314 313 313 314 314 314 315 314 313 311 309 307 306 305 305 304 306 308 309 310 311 312 313 315 316 317 316 316 316 316 317 317 319 321 323 324 324 324 325 326 327 327 328 329 329 329 329 330 330 330 331 331 332 330 329 327 324 321 319 320 323 325 325 324 324 323
314 315 314 314 314 314 314 313 313 312 312 312 313 313 314 314 314 313 312 312 312 312 313 313 313 314 313 311 310 308 306 305 304 303 302 303 306 307 308 309 310 311 313 315 316 315 315 314 313 314 314 316 318 320 321 319 318 319 321 322 323 324 326 328 329 330 330 330 330 330 330 331 331 331 329 326 323 321 319 321 324 325 325 325 323
314 314 314 314 313 313 312 311 310 310 310 310 311 312 313 313 312 311 311 311 312 312 312 311 312 313 312 310 308 307 306 304 303 302 301 302 304 305 306 307 308 310 312 314 314 313 313 312 311 312 312 313 314 316 316 314 314 314 314 315 317 318 320 321 323 324 326 327 329 329 329 330 331 331 329 325 324 323 320 319 322 324 326 325 325
314 314 313 313 312 311 310 308 308 308 308 309 310 311 312 311 311 311 311 311 310 310 310 309 309 310 311 309 307 306 304 302 301 300 300 301 303 304 305 306 307 308 311 313 312 311 311 310 310 309 310 311 311 313 313 311 311 310 309 310 312 313 314 315 315 317 319 322 325 327 329 329 330 330 328 325 324 324 322 319 320 323 325 325 325
313 312 312 311 310 309 308 307 307 307 307 309 310 311 311 311 310 310 310 309 308 308 307 306 306 307 307 307 306 305 302 301 300 300 300 301 303 304 305 306 306 308 311 312 310 309 309 308 308 308 308 308 309 310 310 308 307 307 307 307 308 308 309 311 312 313 314 316 319 323 326 328 329 329 329 328 326 326 323 320 319 321 323 325 325
312 312 311 310 309 307 306 306 307 307 307 309 310 311 311 310 310 309 309 308 307 305 304 303 304 304 304 304 304 303 301 300 300 300 301 302 304 305 305 305 307 309 311 310 309 308 307 307 307 307 307 307 307 308 307 306 306 307 306 306 305 306 307 308 310 310 311 312 315 319 322 325 327 328 328 329 328 327 324 321 319 320 322 324 325
311 311 310 309 307 306 306 306 306 307 308 309 310 310 310 309 309 308 307 307 306 304 301 301 302 302 302 303 302 301 300 300 300 300 301 303 304 304 305 306 308 310 310 309 308 307 307 306 306 306 306 307 307 306 306 305 306 306 305 305 305 305 305 305 306 308 309 311 313 317 321 324 326 327 328 328 328 328 326 323 319 319 321 323 324
310 309 308 307 306 305 305 305 306 306 307 309 309 310 309 308 308 307 306 306 305 303 301 300 300 301 301 301 301 300 300 300 300 301 302 302 303 304 305 307 309 310 309 307 306 306 306 306 306 307 307 307 306 306 305 305 305 305 305 305 305 305 305 305 305 306 307 309 311 314 319 322 324 326 327 327 328 327 327 324 320 318 319 322 324
309 308 307 306 305 305 305 305 305 306 307 308 308 309 309 308 307 306 305 305 304 302 300 299 300 300 300 299 300 300 300 300 301 301 302 302 303 303 304 305 306 308 308 306 305 305 305 305 306 306 307 306 306 305 305 305 305 304 304 304 305 305 304 304 305 305 306 308 309 311 314 317 319 323 325 326 327 327 326 324 321 318 318 321 323
309 308 307 305 304 304 304 305 305 306 306 307 308 308 308 307 306 305 304 304 303 301 299 299 299 299 299 299 299 299 299 300 301 301 301 302 302 302 303 303 304 306 306 305 304 304 304 304 305 306 306 305 305 305 304 304 304 303 303 303 303 303 304 304 305 305 306 308 308 309 311 313 315 318 322 324 325 326 325 323 321 319 318 319 321
309 308 307 305 303 302 303 304 305 305 306 306 307 308 307 306 305 304 303 303 302 300 298 298 298 298 298 298 298 298 298 299 300 300 301 301 301 301 302 302 303 304 304 303 303 302 303 303 303 304 305 305 304 304 303 303 303 302 302 302 302 303 303 304 304 305 306 307 307 307 309 313 314 315 318 322 323 323 323 323 322 321 319 318 319
308 307 306 304 302 300 302 304 304 305 305 306 307 307 306 305 304 303 303 303 302 300 298 297 298 298 298 298 298 298 297 298 299 300 300 301 301 301 301 301 301 302 302 302 302 302 302 302 302 302 302 303 302 302 302 302 302 301 301 301 302 302 303 303 304 305 305 306 306 306 308 312 313 314 317 320 321 322 323 323 323 322 320 319 318
307 306 304 302 300 300 301 302 304 304 304 305 307 307 306 305 304 303 303 303 302 300 299 298 297 297 298 297 297 297 297 297 298 299 300 300 300 300 300 300 300 300 301 301 301 302 301 301 301 301 300 300 300 300 300 300 300 300 300 300 301 301 302 303 303 304 305 305 306 306 308 311 313 314 317 319 320 321 322 322 322 321 321 320 319
305 304 301 299 299 299 300 302 303 303 304 304 306 306 305 304 304 303 302 302 302 301 300 298 298 297 297 297 297 297 298 297 297 298 300 300 300 300 300 300 300 300 300 300 300 301 300 301 301 300 299 299 299 298 299 299 299 299 299 300 300 301 302 303 303 303 304 305 306 307 309 311 313 315 317 318 319 319 319 319 319 319 319 320 319
304 303 300 298 297 298 299 301 302 303 303 304 306 305 304 303 303 303 302 302 301 301 300 299 298 298 297 297 297 298 298 297 297 298 299 300 300 300 300 301 300 300 300 300 300 300 300 300 300 299 299 298 298 298 298 298 298 299 299 299 300 301 301 302 302 303 304 305 306 307 309 311 314 317 316 315 316 317 317 317 317 316 317 318 318
303 302 300 298 296 296 298 300 301 302 302 303 304 304 303 303 303 302 302 302 301 300 300 299 298 297 297 297 298 298 298 298 297 298 299 299 300 300 300 301 301 300 300 300 299 299 299 299 299 298 298 298 297 298 298 298 298 298 299 299 300 300 301 302 302 303 304 305 305 306 309 311 313 314 311 310 311 313 313 314 314 315 315 316 316
304 302 301 298 296 295 296 298 300 301 302 303 303 303 303 303 302 301 301 301 301 300 298 298 298 297 297 297 298 298 298 298 298 298 298 299 300 300 300 300 300 301 301 300 299 299 299 299 298 298 297 297 297 297 297 298 298 298 298 299 299 299 300 301 302 302 302 303 305 306 307 309 309 308 307 306 308 308 308 309 311 312 313 315 316
301 300 298 297 295 295 295 295 297 298 300 301 303 303 303 303 302 300 299 299 299 298 297 297 297 297 297 298 298 298 298 298 298 298 298 299 299 299 299 299 299 300 300 301 300 299 299 299 298 298 297 297 297 297 297 297 297 297 298 298 297 298 299 299 300 300 301 303 305 304 305 306 307 306 305 304 304 303 303 305 308 310 312 314 315
297 296 296 296 296 296 296 296 296 296 297 299 300 301 301 301 300 299 299 298 298 298 298 298 298 298 297 298 298 298 298 298 298 298 298 298 299 299 299 299 299 299 299 300 300 299 299 299 299 298 297 297 296 296 296 296 296 296 296 296 296 296 297 298 298 299 301 303 303 301 302 304 305 304 304 304 304 301 300 301 304 307 310 312 314
Wind_Speed
8 9 7 8 8 7 5 5 4 3 3 4 5 6 6 7 8 8 8 8 8 9 10 9 9 8 9 10 11 12 13 13 12 11 9 8 7 7 8 10 11 11 11 11 11 11 11 12 10 6 9 10 8 6 3 4 9 7 5 5 5 4 4 6 4 3 4 4 2 3 4 6 7 6 8 7 6 7 7 9 9 10 10 10 11
9 9 9 10 10 10 8 7 6 5 5 4 4 5 6 6 8 9 9 10 9 10 11 11 10 9 9 11 11 11 10 10 11 13 12 11 11 11 11 10 11 12 12 12 12 12 12 13 12 8 10 12 10 7 2 6 11 9 6 5 5 5 6 7 5 5 6 5 4 4 5 6 7 6 7 8 7 7 8 9 10 9 10 10 11
8 9 10 11 10 10 9 7 6 4 4 4 4 5 7 7 7 9 9 10 11 11 13 13 13 12 11 12 11 12 13 11 9 10 13 14 15 16 15 13 13 14 13 14 14 14 14 14 14 11 10 12 12 9 4 7 10 7 6 5 6 6 7 6 6 8 6 5 6 6 7 7 8 7 7 8 8 7 8 9 9 9 10 10 11
7 10 10 11 10 10 9 7 6 4 3 4 5 6 7 7 8 9 9 10 11 13 13 13 13 12 12 12 11 11 12 10 9 10 10 12 14 15 16 17 17 17 15 15 15 15 16 15 15 14 10 11 14 11 7 9 10 8 6 6 7 8 7 6 6 6 5 6 7 6 7 8 8 8 8 9 8 8 8 8 9 10 10 11 11
8 9 9 10 9 9 9 7 6 5 4 4 5 7 8 9 8 8 9 9 11 12 12 12 12 12 12 12 11 11 11 11 11 12 10 11 12 13 16 18 18 18 18 17 16 16 17 17 17 16 12 12 15 15 10 11 13 11 8 7 8 9 9 8 6 5 6 7 7 6 6 7 9 9 9 9 8 8 8 8 10 10 10 11 12
9 9 9 9 8 9 8 7 6 6 6 5 6 8 8 7 6 7 8 9 11 12 12 11 11 12 12 11 11 12 13 14 14 13 12 12 12 13 15 16 17 17 18 18 17 17 18 18 18 18 16 15 17 17 12 13 13 13 12 9 8 10 10 8 6 6 7 9 9 7 5 6 11 11 9 10 9 8 8 9 10 11 10 12 13
9 8 8 9 8 7 7 5 5 5 5 4 5 7 5 5 6 8 9 10 10 10 10 11 11 12 12 11 12 13 14 14 15 14 14 14 14 15 15 16 16 17 18 17 18 18 17 18 18 19 19 18 19 18 15 15 14 15 15 11 9 10 10 8 7 8 9 11 10 9 7 6 10 11 10 10 9 9 9 10 11 12 12 12 13
7 9 9 9 8 7 7 4 3 3 2 1 4 5 4 6 7 8 10 10 10 10 10 11 12 12 12 13 13 14 14 15 15 15 15 15 15 15 15 16 16 16 16 17 18 18 17 18 19 20 20 20 21 20 18 17 15 15 16 14 11 11 11 9 8 8 10 12 11 10 9 7 9 11 12 11 10 10 10 11 12 13 14 14 13
7 8 9 10 10 8 6 3 1 2 1 2 4 4 5 7 7 8 9 9 10 11 10 11 11 12 13 13 14 14 15 16 16 16 15 15 14 15 16 17 16 14 15 16 18 18 18 18 19 20 19 20 21 22 21 18 17 16 16 16 14 12 13 11 9 9 11 14 13 11 11 10 9 10 12 13 11 11 11 11 13 13 14 14 13
7 6 8 11 11 7 3 1 2 3 5 5 4 5 5 7 8 8 8 9 11 10 11 12 12 13 14 15 15 15 16 16 17 16 16 15 14 14 16 16 15 15 15 16 15 16 17 18 19 20 19 19 21 23 23 21 19 18 17 17 17 15 14 12 11 11 12 14 14 12 12 12 11 10 11 13 13 12 12 12 13 14 14 14 13
3 2 6 9 10 7 2 3 5 5 6 4 5 6 5 6 8 9 8 9 10 10 11 12 12 13 14 15 16 16 16 16 17 17 16 15 14 14 14 15 15 15 16 16 15 15 16 17 19 19 19 19 20 22 24 23 21 20 18 18 18 17 16 14 13 12 13 16 15 14 13 13 12 12 12 13 14 14 13 13 14 15 14 13 14
2 1 4 6 10 10 4 2 3 2 3 3 4 6 5 6 8 9 10 10 10 11 11 11 12 14 14 16 15 15 15 15 16 18 17 15 14 14 14 14 15 16 16 16 16 15 14 15 17 19 19 19 19 21 23 24 23 22 21 19 18 19 17 16 15 14 15 16 16 16 15 14 13 13 14 13 15 16 15 15 15 16 15 14 14
5 3 1 5 8 7 3 3 3 1 2 3 4 5 6 7 8 9 10 10 11 11 11 11 11 11 13 16 15 14 13 13 13 13 15 15 14 14 14 14 15 16 16 16 16 16 14 14 15 17 18 18 19 20 22 23 25 24 24 22 20 19 18 17 17 16 16 17 17 17 16 16 15 14 15 15 16 18 18 16 16 16 16 16 15
9 6 2 4 4 3 2 2 2 1 1 2 4 5 6 6 7 9 8 10 11 11 11 10 9 9 10 12 12 13 13 8 8 10 11 13 14 14 15 15 16 16 16 17 18 18 17 15 14 15 16 18 19 20 21 23 25 25 25 25 23 21 20 20 20 18 18 18 18 19 19 18 16 15 16 16 17 19 19 18 17 18 18 17 17
11 8 5 3 2 2 1 3 4 3 3 4 4 5 6 6 7 9 8 9 10 10 11 9 9 11 8 5 4 8 9 4 9 18 14 10 13 15 15 16 16 16 16 17 19 19 18 17 16 17 17 18 19 20 21 22 24 25 24 25 26 25 23 23 23 21 19 19 20 20 20 19 18 16 17 16 16 19 21 19 18 19 19 18 18
11 9 7 5 2 2 4 7 7 6 6 5 5 6 6 6 7 8 8 8 10 11 11 10 11 10 5 3 2 3 4 3 13 19 10 8 13 13 13 15 16 16 16 17 19 19 19 19 18 19 19 19 19 20 21 22 23 24 23 24 26 27 27 26 24 23 21 20 21 21 20 20 20 18 17 17 16 18 21 21 20 21 20 19 19
10 9 8 8 8 7 7 7 7 6 6 6 7 7 6 6 6 7 8 9 10 11 11 11 11 11 7 4 2 2 2 5 11 10 8 13 14 9 10 13 14 16 17 18 19 19 20 20 21 21 21 21 20 20 22 23 24 25 25 25 26 27 29 29 27 26 23 21 22 23 22 22 22 21 19 18 18 18 20 21 22 22 21 21 20
10 10 10 11 12 10 8 6 6 6 6 7 7 7 6 6 6 6 8 8 9 10 11 12 10 10 11 8 6 5 6 7 6 4 11 16 10 9 13 13 12 14 16 18 19 20 20 21 22 23 23 23 22 22 23 24 25 26 27 27 27 27 29 30 30 28 26 23 23 25 25 24 24 24 22 21 20 20 20 21 21 22 23 23 21
12 13 13 11 10 9 8 7 5 5 5 6 7 7 6 7 7 7 7 8 10 11 11 12 11 10 12 12 11 11 10 9 5 3 8 9 9 15 16 13 13 15 16 17 18 19 21 22 23 23 24 25 25 25 25 25 26 26 27 27 27 27 28 30 31 30 28 27 26 27 28 26 26 27 25 23 23 22 21 21 20 21 24 25 23
12 11 10 7 6 7 7 5 4 4 4 6 7 6 6 7 7 7 7 8 11 12 12 13 13 13 14 14 13 13 13 12 9 7 4 4 9 13 14 17 19 17 17 18 19 20 22 24 24 24 25 26 26 27 27 27 27 27 27 28 28 28 28 28 30 31 31 30 28 28 29 28 28 28 28 26 25 25 24 23 22 20 23 26 25
8 6 6 5 4 4 5 4 4 4 5 6 7 6 7 7 8 9 9 10 11 13 13 14 14 15 16 15 14 15 15 12 11 11 7 5 6 6 11 18 20 20 21 19 19 20 21 23 24 26 26 27 28 28 29 29 29 28 28 28 29 29 29 28 28 31 33 33 30 28 30 30 30 30 28 26 25 26 27 25 24 22 22 26 26
8 6 5 4 3 4 4 3 4 5 5 6 6 7 7 8 8 9 11 12 13 13 13 13 15 15 16 16 16 16 14 10 10 14 10 6 5 6 9 12 13 20 23 20 20 20 21 22 24 26 27 27 28 28 29 29 30 31 30 30 29 29 30 29 29 29 33 36 33 30 31 32 31 32 30 27 26 27 28 27 25 24 23 25 27
10 8 6 4 3 3 3 3 4 4 6 7 7 8 8 7 7 8 11 13 13 13 13 13 15 16 17 18 18 17 14 11 13 15 11 6 6 6 9 13 13 17 21 22 23 22 20 21 22 24 26 28 29 29 30 30 30 31 31 30 30 29 30 31 30 30 32 35 36 33 33 33 32 33 32 29 28 28 29 28 27 26 24 25 27
11 9 7 4 2 2 3 3 4 5 6 7 7 8 7 7 8 9 11 12 13 14 15 15 17 18 18 18 18 18 18 17 18 18 14 12 10 5 8 14 12 15 22 24 23 22 20 19 21 23 22 24 27 29 30 29 28 29 30 31 30 30 30 31 31 32 32 33 36 35 33 33 33 32 33 33 31 30 30 30 30 28 26 26 27
12 10 8 5 2 3 4 4 5 6 7 6 6 8 7 7 9 10 11 13 14 15 15 16 17 18 19 19 19 19 19 20 20 21 19 18 14 7 10 13 10 13 20 20 20 22 21 18 18 21 20 20 22 25 26 25 25 26 28 30 31 32 32 31 31 33 33 32 35 36 32 33 36 33 32 33 33 31 31 31 30 30 29 28 28
12 11 8 5 4 5 7 8 7 7 7 7 8 10 9 9 10 11 12 14 14 14 15 16 17 18 19 20 21 20 20 21 21 22 22 20 17 12 11 12 10 12 15 16 18 18 18 19 19 20 19 18 16 18 21 21 22 24 25 27 29 32 34 33 32 32 33 33 34 38 36 34 36 36 33 32 34 34 32 32 32 31 31 31 30
11 10 9 9 9 9 10 10 8 9 10 10 11 12 12 12 12 12 13 15 15 15 16 17 18 19 19 20 20 20 21 22 21 22 21 20 18 17 14 9 8 8 8 12 15 13 16 21 21 18 16 15 16 19 22 21 20 21 23 24 25 28 31 34 34 32 33 33 34 38 41 38 36 37 37 34 35 37 35 33 34 34 33 34 33
11 11 11 12 11 10 9 9 9 11 12 11 11 12 12 12 12 13 14 15 16 17 17 18 19 19 19 19 19 20 22 23 22 22 22 21 19 19 18 12 9 8 5 7 9 11 15 19 20 19 18 20 24 25 24 20 19 19 21 23 23 24 27 31 34 34 34 34 35 37 41 42 38 37 40 38 36 37 37 36 36 36 35 36 36
12 13 12 11 9 9 9 10 11 12 11 10 10 11 12 12 13 15 14 14 16 17 17 18 18 18 19 19 19 20 22 23 23 23 22 21 20 19 19 17 14 10 6 6 6 8 15 19 19 20 24 26 26 25 23 21 21 21 21 21 21 23 26 28 31 33 33 34 35 37 39 42 41 39 40 41 38 37 38 39 38 38 38 37 37
12 13 11 9 8 8 9 11 11 11 11 12 12 12 12 13 14 15 15 15 16 17 18 18 18 18 18 19 20 22 23 23 23 23 22 21 21 20 18 17 17 13 9 8 6 8 16 20 21 22 25 28 26 25 24 23 23 22 21 22 22 24 26 28 29 30 31 33 34 36 36 39 41 40 40 42 42 39 38 40 40 39 39 39 39
12 11 10 9 9 9 10 11 11 11 12 13 12 13 14 14 15 15 16 16 16 18 19 19 18 19 19 20 21 23 24 23 23 23 23 22 21 21 20 19 18 16 16 12 6 9 17 20 22 25 25 27 27 25 25 25 24 22 22 23 24 24 26 28 30 30 31 31 32 34 36 37 40 42 43 43 44 43 40 40 42 42 41 41 42
11 10 10 10 10 10 10 10 10 11 11 12 13 13 14 15 15 16 17 17 18 19 19 20 20 19 19 20 21 23 24 24 24 24 24 23 21 20 21 21 19 18 19 16 8 11 19 20 21 25 26 26 27 26 26 27 25 25 25 24 23 24 26 28 30 31 31 31 31 33 35 37 40 44 46 44 44 45 43 42 44 46 44 43 44
11 11 11 11 11 11 11 10 9 9 9 11 12 13 14 16 16 17 18 18 19 18 18 21 20 18 18 20 20 22 24 25 25 26 26 25 22 21 21 21 21 20 20 18 11 11 19 23 22 24 26 25 26 26 25 25 24 22 21 21 21 23 27 29 29 30 30 30 30 31 34 36 40 43 46 47 46 46 46 44 45 48 48 46 46
13 13 13 13 12 11 10 9 8 8 9 11 12 13 15 18 18 17 17 17 18 18 19 21 21 18 18 19 19 21 25 26 25 26 27 25 22 21 21 21 21 22 20 19 15 12 17 24 25 26 26 25 26 25 24 25 25 23 21 20 20 20 22 24 26 28 29 30 30 31 32 35 39 42 45 47 47 47 48 47 47 49 50 49 48
14 13 13 13 12 10 10 10 10 11 13 14 15 15 16 18 18 17 17 18 19 19 19 21 21 20 18 19 20 24 27 27 27 27 27 26 23 20 21 21 21 22 20 18 17 15 16 22 24 24 25 25 25 22 23 26 27 26 25 25 23 21 21 20 21 23 25 28 31 33 33 34 38 42 44 45 45 45 48 50 49 49 51 52 50
15 14 14 12 11 10 10 13 15 16 16 16 16 16 16 17 18 17 17 19 21 21 21 22 22 21 20 19 21 26 28 29 29 29 28 27 24 22 22 21 21 21 19 16 16 16 16 18 22 22 22 23 23 22 24 28 30 29 29 29 28 27 25 24 23 23 23 24 27 31 33 34 36 39 40 41 42 43 47 51 51 50 51 53 53
18 18 16 13 12 13 15 18 20 20 18 17 16 17 16 17 18 17 17 19 22 23 22 22 22 23 22 21 22 25 29 30 29 30 30 27 25 25 24 23 22 21 18 16 16 17 15 16 19 21 20 21 21 21 23 28 31 31 32 31 30 30 30 29 27 26 25 24 23 25 29 32 34 34 35 37 39 41 45 51 53 52 52 53 54
18 18 17 15 14 16 19 21 21 20 19 18 17 16 16 18 19 19 18 20 22 23 23 23 22 24 24 24 24 25 27 29 29 29 30 28 26 26 26 25 23 20 17 16 16 16 16 16 16 18 19 21 21 21 23 26 26 27 30 34 35 32 30 31 32 31 30 27 24 23 25 29 32 32 33 34 37 40 43 49 54 53 51 52 54
18 17 17 16 15 17 20 21 20 19 19 18 17 17 18 20 21 20 20 21 22 23 25 25 24 24 24 24 24 25 26 27 28 29 29 28 28 28 28 27 24 19 16 17 17 17 18 18 17 17 18 19 19 21 24 25 22 21 24 29 34 34 32 31 34 36 35 30 24 22 23 25 29 33 34 34 35 39 42 46 53 55 52 52 53
20 18 17 16 17 19 20 20 19 19 19 20 19 19 19 20 22 21 20 20 20 21 24 25 25 25 24 24 25 26 26 28 29 28 28 28 29 30 29 28 25 19 15 17 19 19 19 19 18 18 18 18 18 20 23 24 22 22 22 22 26 31 33 33 33 34 33 29 25 24 23 23 25 30 33 34 35 37 40 43 49 55 54 52 52
21 19 17 17 17 18 18 18 18 19 20 20 19 19 20 21 21 21 20 20 19 20 23 25 25 25 25 26 27 28 29 29 28 28 28 28 29 30 29 29 27 21 17 19 20 19 18 18 18 18 17 17 18 20 22 22 21 22 24 23 22 26 30 33 34 29 23 22 25 28 27 23 24 27 30 34 35 36 39 42 46 52 55 53 51
19 17 16 17 18 17 16 17 17 18 19 19 19 19 19 18 18 18 19 19 19 21 25 26 25 25 26 27 28 29 31 31 29 27 27 27 28 28 27 28 28 24 21 21 21 19 18 17 17 18 16 16 18 19 20 21 22 22 24 24 24 26 26 26 30 27 19 17 25 32 31 24 22 25 28 32 35 36 38 40 43 49 54 53 51
18 16 17 18 17 16 15 16 17 18 18 17 18 18 17 16 17 17 18 18 19 23 27 26 26 26 27 27 28 29 30 31 30 29 27 26 27 27 26 27 27 24 23 22 21 20 19 16 16 18 17 16 18 19 19 21 22 23 24 23 22 24 22 18 20 24 23 23 28 33 32 27 23 23 27 29 33 35 37 39 41 46 51 53 53
20 20 20 18 17 16 16 16 17 18 17 16 16 16 16 17 17 18 19 18 19 24 28 27 27 27 27 28 28 28 28 29 29 29 27 26 26 26 25 26 26 24 23 23 22 22 20 17 17 19 19 19 19 19 20 22 23 24 23 22 20 20 22 19 17 24 31 32 30 29 30 29 25 23 25 27 28 32 34 36 40 43 48 52 53
21 21 20 18 18 18 18 18 18 17 16 15 13 15 16 16 16 18 18 17 18 23 27 27 27 27 27 28 28 29 29 29 28 27 26 25 25 25 25 27 27 26 24 23 22 22 22 20 18 19 20 20 20 20 22 23 25 25 23 22 22 21 23 23 22 28 35 34 29 27 28 29 27 23 24 26 25 29 32 34 38 41 45 49 52
21 20 20 19 19 20 20 20 18 17 16 14 12 14 16 16 16 17 18 17 17 20 23 25 25 26 27 27 28 28 28 29 28 26 24 24 22 22 23 25 26 27 27 26 24 23 23 21 19 20 22 22 22 23 22 22 24 25 25 25 26 24 24 25 26 30 33 29 25 23 22 26 27 22 21 20 18 20 24 27 31 36 41 46 50
22 21 21 21 21 21 21 20 18 17 17 16 15 16 17 17 16 15 16 17 18 19 20 22 23 24 25 26 27 27 27 29 30 27 23 22 21 20 19 21 22 25 27 27 27 26 25 22 21 23 23 23 24 23 22 22 23 23 25 25 25 24 24 24 25 27 28 26 22 16 15 21 25 17 13 11 10 11 14 19 24 29 35 41 46
24 22 21 21 23 23 22 20 19 18 17 17 18 17 16 16 16 16 15 15 17 19 20 20 21 21 23 24 25 26 26 27 30 29 24 21 20 20 19 18 19 21 24 27 28 27 26 25 24 25 24 23 23 22 22 23 23 24 25 24 23 23 23 21 20 22 27 27 21 15 14 18 18 8 4 1 2 4 5 10 16 21 27 35 41
22 20 19 20 22 25 24 22 20 19 18 17 17 16 15 15 17 18 18 17 18 20 20 19 19 20 22 24 25 26 25 26 29 31 27 23 21 21 21 20 19 18 20 25 28 28 27 27 28 29 27 25 24 24 24 24 24 26 26 24 25 25 22 16 12 18 28 27 20 20 18 14 10 2 5 7 7 6 7 5 8 13 19 26 33
21 20 20 21 23 26 27 26 23 21 19 17 15 15 15 16 17 19 20 21 20 20 19 18 19 21 23 24 26 26 25 24 27 30 30 27 24 22 23 24 23 22 20 22 26 30 30 29 31 33 33 31 28 27 27 26 25 27 26 24 26 25 19 15 13 19 25 20 17 23 21 11 6 3 3 6 11 16 18 13 8 7 12 19 25
24 24 24 25 25 26 26 26 25 25 23 20 17 16 17 17 18 19 20 20 19 17 16 18 19 21 22 24 26 27 24 23 25 28 30 31 28 24 24 26 27 26 25 21 22 28 31 30 31 34 35 34 32 30 30 29 28 28 27 26 28 25 19 18 18 17 14 12 20 27 19 8 7 7 3 1 4 14 22 22 16 10 5 8 15
Wind_Direction
219 203 227 226 215 230 231 227 232 233 242 264 276 280 287 295 293 289 298 307 305 298 301 303 294 301 299 288 301 295 272 260 252 255 264 259 262 279 287 290 290 288 283 279 279 278 282 283 280 257 244 263 269 278 303 237 253 273 272 243 237 249 245 255 273 277 253 248 243 194 164 155 173 167 144 149 151 151 151 143 142 141 137 136 134
232 219 233 229 230 239 233 228 227 224 231 247 259 270 280 283 284 285 288 289 292 295 295 295 291 298 299 293 305 308 299 287 264 254 258 258 259 270 276 279 282 283 281 279 279 277 277 278 277 258 238 255 267 267 264 246 256 269 273 252 242 246 250 259 263 266 253 235 226 202 188 174 181 178 151 153 156 157 160 153 153 151 144 142 140
242 232 239 238 240 237 229 229 229 225 234 261 278 285 285 280 286 293 293 288 289 293 296 298 293 294 294 289 297 306 308 306 288 264 261 261 262 266 266 267 274 276 276 278 279 277 276 275 274 267 244 246 261 271 257 244 258 274 272 247 239 247 258 263 254 258 245 220 227 209 200 192 183 180 159 157 160 162 166 162 161 160 155 151 150
245 239 240 239 237 227 226 227 231 235 237 280 293 287 282 282 290 296 299 296 291 293 299 300 297 299 299 293 297 305 304 304 302 289 275 268 267 268 266 267 273 275 274 276 275 274 275 272 270 269 251 235 248 263 256 249 265 274 257 238 236 243 256 268 265 258 224 211 234 219 206 201 184 180 169 163 165 165 169 169 166 165 164 162 160
254 246 237 238 234 229 229 226 234 243 239 268 287 286 286 282 285 292 297 299 295 299 305 302 298 302 303 300 298 298 298 298 302 299 288 278 275 272 268 268 272 274 270 269 271 274 274 270 267 265 254 236 241 249 239 241 261 266 258 248 233 237 255 268 270 249 213 215 231 217 209 197 181 181 177 171 170 169 170 171 171 171 172 170 164
261 250 238 240 240 239 237 233 236 237 240 260 284 290 293 293 298 301 299 300 299 302 305 303 302 303 302 297 293 293 292 292 297 298 290 282 279 274 270 270 271 272 268 266 272 276 273 269 267 263 256 243 242 247 236 232 247 250 258 262 232 236 254 260 260 241 213 218 227 217 207 186 180 184 185 179 176 175 170 170 171 170 176 176 164
271 267 256 253 256 262 258 246 237 237 247 262 290 296 305 315 313 306 301 301 304 310 311 310 308 305 304 299 296 298 298 297 297 296 292 288 285 279 277 277 274 272 269 267 274 278 273 269 268 265 260 250 245 246 236 231 235 235 248 258 233 232 246 245 248 243 218 216 224 217 209 194 185 188 191 187 184 183 174 171 170 170 180 180 172
254 268 271 269 271 275 269 260 240 231 227 249 298 311 329 320 308 307 311 312 314 317 316 314 310 306 304 302 302 302 300 299 297 295 294 292 290 288 287 285 283 278 273 272 277 281 278 271 269 267 262 255 250 247 239 234 236 236 239 243 239 235 238 238 239 239 219 212 219 215 211 208 193 193 196 194 192 189 182 175 170 175 186 185 184
214 241 259 271 276 273 265 273 235 196 88 6 319 327 327 310 300 304 309 311 312 310 307 309 308 303 301 299 300 298 293 291 291 292 294 292 291 293 295 295 294 289 283 278 277 281 281 273 271 272 267 260 255 250 245 239 238 241 237 234 242 241 237 239 237 237 221 210 217 215 211 212 206 202 200 199 199 194 190 183 175 180 189 187 185
206 217 241 259 272 272 255 303 3 23 13 0 341 337 316 298 302 309 309 308 308 306 305 307 306 304 302 301 301 298 293 290 288 288 287 289 290 290 293 295 294 292 290 284 280 284 282 273 272 273 268 264 259 251 248 244 239 242 240 235 239 238 238 244 241 239 227 212 215 218 214 212 211 212 205 201 203 200 196 192 185 182 186 188 187
198 253 266 273 286 289 299 8 9 7 350 344 336 325 307 299 308 311 309 307 307 309 309 307 307 305 304 306 308 306 302 297 292 288 285 284 287 287 286 287 289 289 291 289 287 290 283 273 269 269 267 266 261 253 248 247 243 241 242 238 237 236 237 244 242 236 231 219 214 218 217 211 212 218 214 206 204 204 201 197 193 187 185 191 192
150 251 267 285 296 296 303 339 336 329 309 313 321 317 313 310 311 311 312 313 315 316 315 310 306 305 308 312 314 311 309 306 299 290 283 283 284 284 283 283 287 288 288 288 288 289 282 273 267 267 270 269 263 256 251 249 247 244 243 240 238 237 234 236 236 231 231 228 219 219 218 211 215 220 216 212 207 205 203 201 200 194 188 192 194
148 128 189 259 272 279 264 218 223 251 295 306 315 318 317 313 311 313 314 316 319 321 320 311 304 309 314 316 317 319 321 320 316 301 284 284 286 284 284 281 282 286 286 285 285 286 283 275 269 268 271 271 265 260 256 252 250 248 244 240 238 237 233 230 231 229 230 232 226 226 222 212 215 220 214 214 212 206 202 203 204 202 196 195 196
144 135 155 261 262 262 259 226 219 247 333 342 336 331 321 319 318 314 313 316 320 328 331 320 306 309 313 315 318 330 340 355 13 347 302 288 288 285 286 281 279 283 282 282 285 286 285 280 273 270 270 271 269 265 260 253 250 249 245 240 236 234 233 233 232 230 230 232 231 230 227 217 215 219 215 214 214 206 201 203 204 205 203 200 202
149 150 158 202 246 269 337 47 41 20 18 2 348 349 341 340 335 328 328 329 331 336 340 338 322 316 317 318 315 329 341 6 356 340 322 299 295 289 286 282 280 281 278 279 284 286 286 284 281 276 272 270 268 266 263 257 252 251 248 242 237 232 232 234 233 230 227 230 232 230 228 221 214 217 217 213 209 203 201 202 202 205 206 203 205
144 139 142 150 143 44 46 51 48 32 14 3 356 357 353 350 349 351 352 349 347 342 342 350 343 335 324 288 284 323 329 322 328 331 334 333 321 309 300 292 285 281 276 277 282 285 284 282 280 278 275 272 267 261 261 261 258 255 252 246 241 235 231 231 232 231 229 229 230 227 226 224 217 215 216 211 205 202 203 203 201 202 205 205 206
124 129 128 113 92 63 56 57 52 37 18 15 7 359 3 5 2 5 6 358 350 344 345 352 352 353 350 317 313 325 287 312 326 324 317 326 329 327 327 318 299 285 280 279 280 282 282 281 280 278 276 273 268 261 258 259 258 256 255 250 243 238 233 232 232 231 230 229 227 226 225 222 219 216 214 210 207 206 204 204 204 203 205 206 206
101 102 97 88 79 65 61 57 42 39 36 26 15 16 26 23 11 3 4 2 353 350 349 351 355 360 360 353 338 312 295 309 322 308 310 318 324 321 326 330 319 304 293 286 280 279 279 279 279 278 276 274 270 265 260 258 257 256 255 253 248 242 236 234 233 231 230 228 226 227 227 221 217 217 216 210 207 209 208 206 206 205 204 206 205
91 85 80 74 72 64 55 48 33 33 31 23 26 33 37 33 26 15 11 10 2 354 349 351 354 353 352 350 342 333 325 316 298 287 310 315 318 320 326 334 329 321 312 303 293 285 282 278 274 272 273 273 271 268 265 261 259 257 256 255 252 248 242 238 235 231 228 228 228 228 229 224 218 218 219 214 209 208 209 208 207 205 203 205 205
85 78 72 66 68 58 44 41 35 23 9 15 27 30 31 31 29 23 16 14 7 356 349 350 348 345 347 347 344 344 340 332 319 307 296 294 315 322 329 332 328 325 323 317 310 301 294 286 276 270 270 271 270 268 267 264 261 259 258 256 255 252 247 241 238 234 228 227 229 229 230 227 221 221 221 216 212 209 208 207 207 205 203 203 204
94 83 74 76 81 62 47 40 32 24 10 13 19 17 18 19 21 22 13 8 5 358 354 354 351 349 351 351 348 347 346 345 339 332 319 297 312 319 325 329 327 323 323 320 317 316 311 301 289 278 270 268 269 267 266 265 263 261 260 259 256 254 251 246 241 238 232 228 227 227 230 228 223 223 221 215 212 210 207 206 207 205 202 201 202
103 95 88 96 100 78 64 44 27 23 15 13 13 8 10 15 20 21 15 10 6 4 4 6 6 5 4 3 359 354 350 348 344 341 333 306 304 309 316 325 320 317 321 322 319 318 317 312 301 287 276 270 269 267 264 264 264 265 265 263 259 256 254 251 246 242 236 230 227 224 226 229 226 223 221 215 213 212 208 206 206 205 203 200 202
106 104 100 108 111 80 58 31 13 7 8 12 13 7 6 11 15 18 19 16 12 10 10 10 11 11 11 11 7 3 358 348 340 340 339 323 317 309 315 322 313 310 317 320 319 317 317 315 310 302 289 277 273 270 268 267 266 267 267 265 262 259 256 254 251 247 241 234 231 227 224 228 230 225 220 216 213 211 208 206 205 206 205 202 203
106 102 95 96 96 53 29 8 1 358 360 6 10 7 6 10 15 19 18 13 9 9 10 10 10 9 9 9 6 6 3 355 348 344 341 334 328 318 322 326 317 311 318 320 318 318 319 316 316 317 305 292 286 277 270 268 267 269 269 267 265 264 260 256 253 250 246 239 235 231 226 227 232 229 222 218 216 210 207 206 206 206 205 202 203
95 90 82 74 62 29 1 352 358 1 360 5 11 8 6 12 16 18 15 10 6 6 8 9 8 8 7 5 3 2 360 357 356 354 348 340 335 326 322 323 314 310 317 319 318 318 320 320 322 325 323 319 307 285 275 273 271 272 273 272 271 269 265 260 256 252 249 245 240 235 230 229 231 232 228 222 217 212 207 206 207 208 205 202 202
87 80 65 46 48 41 26 25 24 14 12 25 31 26 25 26 23 21 15 8 4 5 8 8 6 7 7 5 4 3 359 358 360 359 356 348 342 336 326 319 313 311 313 317 319 318 319 323 327 326 329 336 324 298 295 295 287 280 276 275 274 272 268 264 260 256 251 249 246 239 235 234 230 230 233 228 219 214 208 205 207 210 208 204 202
80 69 53 46 52 53 48 44 32 24 32 43 43 41 40 36 32 27 19 15 16 19 18 16 15 14 13 11 9 9 7 5 5 3 2 358 352 348 346 334 320 320 317 318 321 319 318 322 328 331 333 338 332 320 315 311 304 295 284 279 278 275 271 267 263 260 256 253 248 241 240 238 230 226 230 232 225 217 209 205 207 209 210 208 205
70 63 60 57 56 57 54 45 37 41 43 41 42 44 43 42 37 30 28 28 29 29 26 23 23 20 18 15 12 12 9 7 7 6 4 4 0 357 356 348 333 328 324 323 325 326 330 333 334 334 332 330 327 323 319 311 310 307 293 283 281 282 279 271 265 262 260 257 250 244 242 240 232 225 227 230 229 222 214 208 207 208 211 211 209
73 70 69 65 61 62 58 49 48 49 41 35 43 43 41 44 38 32 33 31 30 32 28 24 22 18 16 17 17 16 11 10 10 9 8 5 1 359 357 351 343 336 326 330 329 324 334 339 335 329 331 333 331 327 320 311 308 307 300 289 285 287 286 277 271 266 262 259 252 247 246 243 235 228 226 227 229 227 218 211 209 209 211 212 211
80 77 74 72 69 65 61 56 53 51 46 48 50 39 37 43 39 36 35 32 33 34 28 25 22 22 24 25 24 20 15 13 11 10 10 7 2 360 358 354 349 342 332 327 325 329 334 334 330 328 330 333 333 329 322 317 314 309 300 295 289 288 286 280 276 273 267 263 256 251 250 248 241 233 229 226 227 228 221 212 209 209 212 212 212
88 89 91 86 77 70 65 62 64 67 66 63 56 46 43 45 42 39 36 36 40 38 32 31 30 33 36 32 28 22 17 16 14 11 9 5 2 0 359 358 353 348 341 330 321 335 336 330 328 330 331 332 333 333 327 324 323 315 305 300 293 285 285 282 278 276 272 267 261 256 254 252 246 240 235 228 224 227 227 219 212 210 212 214 213
102 102 102 93 82 76 73 73 75 76 74 72 68 63 55 49 45 42 40 42 45 40 34 31 30 34 36 32 29 25 21 21 18 15 12 7 5 4 1 358 354 350 345 339 332 332 335 334 331 331 333 335 336 335 333 331 329 322 314 309 299 287 285 286 283 279 277 272 266 262 258 254 248 243 239 232 224 224 228 226 218 213 213 214 213
111 106 98 91 86 83 80 78 73 66 71 76 77 76 66 55 49 45 43 44 44 39 33 30 30 34 35 35 34 27 22 23 20 15 12 10 8 5 2 358 353 349 346 341 336 328 332 336 337 335 337 339 338 338 343 347 348 344 334 326 319 302 290 289 286 282 280 278 274 270 265 259 253 247 242 235 227 224 224 226 223 217 214 214 214
109 103 92 89 91 89 80 70 62 62 72 80 81 79 69 59 53 47 45 45 43 39 36 34 35 36 37 38 37 27 20 20 18 12 9 8 5 360 358 358 352 347 345 339 337 335 334 335 338 339 340 341 341 343 353 0 358 355 349 344 342 328 310 299 292 288 285 281 279 277 274 267 259 254 247 238 231 226 223 224 224 221 216 214 214
111 101 95 96 94 86 72 61 61 71 82 85 82 78 71 62 57 50 48 47 44 43 42 38 35 35 39 41 34 23 17 16 14 9 6 7 6 359 356 356 352 348 346 345 347 347 338 332 335 339 339 340 341 343 351 353 348 346 343 338 336 333 328 320 312 307 300 293 287 283 279 274 266 259 251 241 234 230 226 223 224 224 219 215 215
103 99 100 99 89 77 69 66 68 75 84 89 87 83 78 70 62 56 53 51 48 47 47 41 37 36 39 39 30 20 15 13 10 6 5 6 7 3 358 355 351 347 346 350 354 352 341 332 333 337 338 338 338 341 348 346 340 340 340 334 329 327 324 321 319 316 312 306 297 288 282 279 272 266 258 247 241 237 230 225 224 225 223 218 215
99 98 93 85 78 74 74 77 77 76 80 87 91 89 83 76 70 63 58 55 52 49 45 40 40 41 39 35 28 20 14 10 8 5 4 6 6 5 1 355 350 348 347 350 353 352 349 342 335 336 340 340 337 341 349 348 341 339 339 336 333 332 326 320 315 314 314 311 305 296 288 280 274 271 264 256 251 245 235 227 225 224 224 221 217
103 99 88 81 76 76 81 84 82 79 80 84 89 88 83 78 75 69 63 60 55 48 43 41 42 43 39 34 28 19 14 12 9 6 6 8 9 8 3 358 355 355 353 351 353 354 352 347 340 339 342 343 341 340 344 346 343 339 338 336 334 335 333 326 320 319 321 318 310 304 298 288 279 273 267 260 256 251 241 231 226 224 223 223 219
105 99 92 87 80 81 86 85 82 82 81 82 83 84 83 78 75 73 68 64 58 49 43 43 45 45 42 36 28 20 17 15 12 10 12 13 13 12 7 3 2 3 1 357 355 354 350 345 342 340 339 340 342 340 339 343 342 338 340 337 331 330 333 331 324 321 324 325 317 310 308 302 291 279 269 263 258 253 248 236 227 223 224 225 222
102 98 93 90 87 86 85 81 82 82 80 81 82 82 84 81 76 74 69 66 62 52 45 44 46 48 45 40 33 26 22 21 20 21 21 18 16 15 14 12 9 7 7 6 1 356 350 344 339 337 338 340 341 340 339 343 343 340 340 336 326 323 325 324 321 320 323 325 324 318 315 315 306 286 270 264 260 255 252 243 229 223 223 225 225
100 96 89 87 89 88 84 82 82 80 77 77 79 82 85 83 78 73 68 68 65 54 47 47 50 51 48 42 37 31 28 28 29 29 28 27 23 20 19 18 14 9 7 8 6 359 352 346 341 338 340 342 344 343 341 342 341 335 333 331 322 318 319 317 315 318 320 320 322 321 316 316 313 296 273 264 263 256 251 245 233 225 223 224 225
100 95 87 83 85 85 85 85 83 80 77 75 77 83 86 81 75 71 71 72 68 57 52 53 54 52 47 42 37 33 31 31 30 30 31 32 30 25 23 23 21 18 14 10 6 0 354 348 343 341 342 342 343 342 338 336 335 332 331 330 323 320 320 318 316 319 321 319 320 319 316 314 312 299 279 268 265 259 250 243 235 227 224 224 225
102 98 90 83 80 81 85 87 85 81 77 77 83 88 86 79 73 72 76 78 70 60 57 56 55 50 45 40 36 33 30 29 29 30 31 32 31 28 26 25 25 24 19 12 8 4 358 350 344 345 343 338 339 340 336 333 334 333 331 327 322 320 321 319 315 315 316 318 318 313 310 311 310 297 282 271 266 260 251 245 240 232 227 225 225
105 102 94 85 78 78 85 89 86 80 78 80 88 93 89 82 76 74 78 82 74 63 58 55 52 47 41 37 34 31 30 28 28 29 30 32 34 34 32 31 29 26 20 14 10 7 3 356 351 351 347 339 338 339 338 336 334 331 329 324 320 316 313 310 305 302 307 313 314 306 302 308 309 294 281 275 268 261 256 250 244 237 231 228 226
107 103 94 85 78 76 82 87 85 82 78 77 89 98 93 85 80 77 79 83 77 64 57 54 50 44 37 33 31 30 29 28 27 29 30 32 35 38 39 39 36 31 27 22 16 11 7 3 358 355 350 345 341 340 341 340 336 331 327 323 320 314 308 306 301 298 304 311 310 300 297 304 306 293 278 277 272 264 259 254 248 241 235 231 229
107 100 89 83 79 77 80 84 85 83 75 71 90 101 93 85 83 81 82 83 75 64 57 53 46 39 34 30 27 27 28 28 26 27 29 29 30 31 32 34 34 33 31 28 22 15 9 6 2 355 352 351 348 346 345 343 339 334 327 322 319 314 308 305 302 300 305 311 308 299 294 300 305 292 272 269 266 257 253 250 248 246 242 236 232
104 96 87 81 80 79 81 84 88 84 73 75 94 100 91 84 82 82 85 81 71 64 58 50 42 35 31 30 27 25 26 27 26 27 29 28 25 23 22 24 27 30 30 27 24 19 14 9 3 356 354 354 352 352 351 349 346 341 334 327 323 318 313 311 309 307 310 315 316 309 295 300 305 289 256 253 253 245 243 241 242 245 244 240 236
104 98 90 82 79 79 82 85 88 85 76 79 95 101 96 89 83 81 85 82 73 65 57 47 39 33 29 28 27 25 26 27 27 28 31 29 25 20 16 14 17 22 24 23 22 21 18 16 10 4 1 1 0 1 0 359 357 352 347 341 337 333 327 320 315 313 314 318 328 333 312 305 309 292 204 159 233 236 250 245 242 244 243 240 236
108 104 97 87 80 79 80 82 85 85 78 76 88 95 95 92 85 80 80 80 75 66 56 47 40 35 32 30 27 25 26 29 29 29 31 33 29 23 17 13 11 12 14 15 16 17 17 17 15 13 12 12 11 10 10 9 7 4 359 352 348 344 335 326 320 315 314 316 332 346 334 317 321 351 102 77 61 43 16 327 275 260 252 244 237
110 107 101 93 85 80 79 78 79 81 78 76 81 85 88 89 86 80 77 75 72 65 56 48 42 36 33 31 29 26 26 30 31 30 32 35 33 28 23 18 14 11 7 6 10 13 13 14 14 15 16 17 16 16 15 14 14 13 8 360 355 349 338 332 329 319 315 315 335 347 340 327 339 13 81 72 55 41 30 17 349 304 267 254 243
108 104 100 95 88 82 78 76 76 77 76 76 78 81 85 87 84 80 77 74 70 63 51 41 35 31 30 30 30 29 29 33 34 33 33 35 34 32 29 23 16 12 9 4 6 10 11 12 13 14 15 17 17 18 19 18 18 18 14 8 4 359 347 338 335 327 319 319 336 343 340 330 357 11 1 28 52 36 32 32 26 12 333 273 250